Back to catalog

MOLA

AliveScienceVLEO
NORAD 59289·PAYLOAD·🇺🇸 United States

Launched Mar 21, 2024 from Wallops Flight Facility

Loading…

Next Passes (next 24 hours)

TLE

FreshSource: Space-Track

Epoch: Sep 14, 2026, 04:30 UTC

1 59289U 24053B   26257.18786012  .00051015  00000-0  46057-3 0  9999
2 59289  49.9828 188.1943 0001937  81.2297 278.8896 15.67568545135423

Track MOLA in real time with AllMySat

Download on the App Store